Weather History for Edinburg, TX

Change the Weather History Date:

Friday, October 26, 2012

  Actual Average (KMFE) Record (KMFE)
Temperature  
Mean Temperature 72 °F 75 °F  
Max Temperature 88 °F 86 °F 96 °F (2010)
Min Temperature 56 °F 65 °F 44 °F (1943)
Degree Days  
Heating Degree Days 0 0  
Month to date heating degree days 0  
Since 1 July heating degree days 0  
Cooling Degree Days 8 10  
Month to date cooling degree days 334  
Year to date cooling degree days 4133  
Growing Degree Days 22 (Base 50)    
Moisture  
Dew Point 62 °F    
Average Humidity 66    
Maximum Humidity 88    
Minimum Humidity 41    
Precipitation  
Precipitation 0.00 in 0.06 in 2.74 in (2003)
Month to date precipitation 1.81  
Year to date precipitation 19.85  
Sea Level Pressure  
Sea Level Pressure 29.99 in    
Wind  
Wind Speed 8 mph (NNE)    
Max Wind Speed 23 mph    
Max Gust Speed 33 mph    
Visibility 7 miles    
Events Thunderstorm    
T = Trace of Precipitation, MM = Missing Value Source: NWS Daily Summary

Daily Weather History Graph

Daily Weather History Graph

Search for Another Location

Airport:

Trip Planner

Search our weather history database for the weather conditions in past years. The results will help you decide how hot, cold, wet, or windy it might be!

Date:

Astronomy

Oct. 26, 2012 Rise Set
Actual Time 7:38 AM CDT 6:54 PM CDT
Civil Twilight 7:14 AM CDT 7:17 PM CDT
Nautical Twilight 6:47 AM CDT 7:45 PM CDT
Astronomical Twilight 6:20 AM CDT 8:12 PM CDT
Moon 4:59 PM CDT (10/26) 4:50 AM CDT (10/26)
Length of Visible Light 12h 03m
Length of Day
11h 15m
Waxing Gibbous, 91% of the Moon is Illuminated
Oct 26
Waxing Gibbous
Oct 29
Full
Nov 6
Last Quarter
Nov 13
New
Nov 20
First Quarter

Hourly Weather History & Observations

Time (CDT) Temp. Heat Index Dew Point Humidity Pressure Visibility Wind Dir Wind Speed Gust Speed Precip Events Conditions
12:35 AM 76.1 °F - 70.3 °F 82% 29.88 in 7.0 mi SE 4.6 mph - N/A   Clear
12:55 AM 75.6 °F - 70.2 °F 83% 29.88 in 7.0 mi SE 5.8 mph - N/A   Clear
1:15 AM 75.2 °F - 69.8 °F 83% 29.88 in 7.0 mi ESE 6.9 mph - N/A   Clear
1:35 AM 75.6 °F - 70.3 °F 84% 29.88 in 7.0 mi SE 4.6 mph - N/A   Clear
1:55 AM 75.2 °F - 70.0 °F 84% 29.89 in 7.0 mi SE 5.8 mph - N/A   Clear
2:15 AM 75.2 °F - 70.2 °F 84% 29.88 in 7.0 mi SE 6.9 mph - N/A   Clear
2:35 AM 75.0 °F - 70.2 °F 85% 29.88 in 10.0 mi SSE 5.8 mph - N/A   Clear
2:55 AM 74.3 °F - 69.8 °F 86% 29.88 in 7.0 mi SE 4.6 mph - N/A   Clear
3:15 AM 74.3 °F - 69.8 °F 86% 29.88 in 7.0 mi SE 3.5 mph - N/A   Clear
3:55 AM 74.3 °F - 69.8 °F 86% 29.88 in 7.0 mi Calm Calm - N/A   Clear
4:15 AM 73.9 °F - 69.6 °F 86% 29.88 in 7.0 mi NNE 4.6 mph - N/A   Clear
4:35 AM 73.8 °F - 69.3 °F 86% 29.89 in 7.0 mi North 4.6 mph - N/A   Clear
4:55 AM 74.3 °F - 69.8 °F 86% 29.89 in 7.0 mi ENE 4.6 mph - N/A   Clear
5:15 AM 74.5 °F - 69.8 °F 85% 29.89 in 7.0 mi Calm Calm - N/A   Scattered Clouds
5:35 AM 74.5 °F - 69.8 °F 85% 29.90 in 7.0 mi Calm Calm - N/A   Mostly Cloudy
5:55 AM 73.8 °F - 69.3 °F 86% 29.90 in 7.0 mi Calm Calm - N/A   Mostly Cloudy
6:15 AM 73.8 °F - 69.4 °F 86% 29.90 in 7.0 mi Calm Calm - N/A   Mostly Cloudy
6:35 AM 73.6 °F - 69.3 °F 86% 29.91 in 7.0 mi Calm Calm - N/A   Mostly Cloudy
6:55 AM 73.4 °F - 68.9 °F 86% 29.92 in 7.0 mi Calm Calm - N/A   Scattered Clouds
7:15 AM 72.9 °F - 68.9 °F 87% 29.92 in 10.0 mi Calm Calm - N/A   Mostly Cloudy
7:35 AM 72.1 °F - 68.2 °F 87% 29.93 in 7.0 mi Calm Calm - N/A   Scattered Clouds
7:55 AM 71.8 °F - 68.2 °F 88% 29.94 in 5.0 mi Calm Calm - N/A   Mostly Cloudy
8:15 AM 72.7 °F - 68.9 °F 88% 29.95 in 7.0 mi East 3.5 mph - N/A   Scattered Clouds
8:35 AM 75.4 °F - 70.7 °F 85% 29.96 in 7.0 mi East 4.6 mph - N/A   Clear
8:55 AM 77.2 °F - 70.7 °F 80% 29.97 in 5.0 mi East 5.8 mph - N/A   Haze
9:15 AM 80.2 °F 83.7 °F 70.9 °F 73% 29.97 in 5.0 mi ESE 5.8 mph - N/A   Haze
9:35 AM 82.4 °F 86.3 °F 70.2 °F 66% 29.98 in 5.0 mi SE 6.9 mph - N/A   Haze
9:55 AM 83.7 °F 87.7 °F 69.8 °F 63% 29.99 in 5.0 mi ESE 8.1 mph - N/A   Haze
10:15 AM 84.4 °F 88.2 °F 69.3 °F 60% 29.99 in 7.0 mi East 6.9 mph - N/A   Clear
10:35 AM 85.8 °F 88.8 °F 67.6 °F 54% 29.99 in 7.0 mi East 5.8 mph - N/A   Clear
10:55 AM 86.5 °F 89.3 °F 66.9 °F 52% 29.99 in 7.0 mi ESE 6.9 mph - N/A   Scattered Clouds
11:15 AM 86.7 °F 88.7 °F 65.7 °F 49% 29.99 in 4.0 mi Calm Calm - N/A   Haze
11:35 AM 88.3 °F 89.9 °F 64.8 °F 45% 30.00 in 7.0 mi NNE 11.5 mph - N/A   Mostly Cloudy
11:55 AM 86.2 °F 88.8 °F 66.9 °F 52% 29.99 in 7.0 mi NNE 11.5 mph - N/A   Overcast
12:15 PM 87.6 °F 90.4 °F 66.9 °F 50% 29.99 in 7.0 mi NNE 12.7 mph - N/A   Mostly Cloudy
12:35 PM 87.8 °F 90.0 °F 65.8 °F 48% 29.99 in 7.0 mi NNE 11.5 mph 17.3 mph N/A Thunderstorm Scattered Clouds
12:55 PM 87.8 °F 90.0 °F 65.7 °F 48% 29.98 in 10.0 mi NE 11.5 mph 19.6 mph N/A   Clear
1:15 PM 85.8 °F 87.6 °F 65.1 °F 50% 29.98 in 7.0 mi NNE 13.8 mph 18.4 mph N/A   Clear
1:35 PM 83.8 °F 85.3 °F 64.4 °F 52% 29.98 in 7.0 mi NE 13.8 mph 17.3 mph N/A   Clear
1:55 PM 82.0 °F 83.3 °F 63.3 °F 53% 29.97 in 7.0 mi NNE 16.1 mph - N/A   Clear
2:15 PM 81.5 °F 82.7 °F 63.0 °F 53% 29.97 in 7.0 mi NE 18.4 mph - N/A   Clear
2:35 PM 83.7 °F 84.5 °F 62.6 °F 49% 29.97 in 7.0 mi NNE 16.1 mph 25.3 mph N/A   Clear
2:55 PM 85.1 °F 85.7 °F 62.2 °F 46% 29.96 in 7.0 mi NNE 15.0 mph 23.0 mph N/A   Clear
3:15 PM 83.8 °F 83.3 °F 58.1 °F 41% 29.96 in 7.0 mi North 19.6 mph 26.5 mph N/A   Scattered Clouds
3:35 PM 82.4 °F 82.0 °F 57.2 °F 42% 29.97 in 7.0 mi North 18.4 mph 27.6 mph N/A   Clear
3:55 PM 81.7 °F 81.3 °F 55.6 °F 41% 29.97 in 5.0 mi North 19.6 mph 29.9 mph N/A   Haze
4:15 PM 80.6 °F 80.5 °F 55.4 °F 42% 29.98 in 5.0 mi North 19.6 mph 33.4 mph N/A Thunderstorm Haze
4:35 PM 78.6 °F - 54.9 °F 44% 29.98 in 5.0 mi North 23.0 mph 28.8 mph N/A   Haze
4:55 PM 77.2 °F - 54.7 °F 46% 29.99 in 7.0 mi North 23.0 mph 27.6 mph N/A   Clear
5:15 PM 75.7 °F - 54.1 °F 47% 30.00 in 7.0 mi North 19.6 mph 25.3 mph N/A   Clear
5:35 PM 74.7 °F - 53.2 °F 47% 30.02 in 7.0 mi North 20.7 mph 25.3 mph N/A   Clear
5:55 PM 72.7 °F - 53.2 °F 50% 30.03 in 5.0 mi North 19.6 mph 28.8 mph N/A   Haze
6:15 PM 72.0 °F - 51.8 °F 49% 30.04 in 5.0 mi North 20.7 mph 24.2 mph N/A   Haze
6:35 PM 70.3 °F - 50.9 °F 50% 30.06 in 5.0 mi North 19.6 mph 27.6 mph N/A   Haze
6:55 PM 69.1 °F - 50.0 °F 51% 30.08 in 10.0 mi North 20.7 mph - N/A   Overcast
7:15 PM 68.0 °F - 49.1 °F 51% 30.09 in 10.0 mi North 17.3 mph 21.9 mph N/A   Overcast
7:35 PM 67.1 °F - 48.7 °F 52% 30.10 in 10.0 mi North 17.3 mph 27.6 mph N/A   Overcast
7:55 PM 66.2 °F - 48.6 °F 53% 30.12 in 10.0 mi North 17.3 mph 20.7 mph N/A   Overcast
8:15 PM 64.6 °F - 48.2 °F 55% 30.13 in 10.0 mi North 13.8 mph 23.0 mph N/A   Overcast
8:35 PM 63.1 °F - 48.0 °F 58% 30.14 in 10.0 mi North 18.4 mph 25.3 mph N/A   Overcast
8:55 PM 60.8 °F - 48.7 °F 64% 30.15 in 10.0 mi North 20.7 mph - N/A   Overcast
9:15 PM 59.7 °F - 48.6 °F 67% 30.17 in 7.0 mi NNW 18.4 mph - N/A   Overcast
9:35 PM 59.4 °F - 48.6 °F 67% 30.18 in 7.0 mi North 16.1 mph 23.0 mph N/A   Overcast
9:55 PM 59.0 °F - 48.2 °F 67% 30.19 in 7.0 mi North 20.7 mph 27.6 mph N/A   Overcast
10:35 PM 58.1 °F - 48.6 °F 71% 30.20 in 7.0 mi North 18.4 mph 24.2 mph N/A   Overcast
10:55 PM 57.7 °F - 49.1 °F 73% 30.21 in 7.0 mi North 15.0 mph - N/A   Overcast
11:15 PM 58.3 °F - 48.9 °F 71% 30.20 in 7.0 mi North 10.4 mph - N/A   Overcast
11:35 PM 58.1 °F - 49.3 °F 72% 30.21 in 5.0 mi North 16.1 mph 31.1 mph N/A   Haze
11:55 PM 56.8 °F - 50.4 °F 79% 30.21 in 5.0 mi North 13.8 mph 19.6 mph N/A   Drizzle